{"data":{"norad_id":45389,"intl_designator":"2020-019AF","name":"STARLINK-1283","alt_names":[],"object_type":"PAYLOAD","status":"ACTIVE","operator":null,"country":"US","launch_date":"2020-03-18","launch_site_code":"AFETR","launch_vehicle":null,"mission":null,"orbit_class":"UNKNOWN","rcs_meters":null,"size_class":null,"mass_kg":null,"dimensions":null,"purposes":["comms"],"wikipedia_slug":null,"has_3d_model":false,"image_url":null,"decayed_at":null,"tle_current":{"epoch":"2026-05-25T02:35:59.608320Z","epoch_age_seconds":65427,"freshness":"FRESH","line1":"1 45389U 20019AF  26145.10832880  .00054515  00000+0  46242-3 0  9999","line2":"2 45389  53.0397  95.0209 0004390  74.1815 285.9685 15.69138053342491","mean_motion":15.69138053,"eccentricity":0.000439,"inclination_deg":53.0397,"raan_deg":95.0209,"arg_perigee_deg":74.1815,"mean_anomaly_deg":285.9685,"bstar":0.00046242,"rev_number":34249,"period_min":91.770128016901,"perigee_km":358.4053000132,"apogee_km":364.32258183933,"semimajor_km":6739.5009409263,"source":"CELESTRAK","updated_at":"2026-05-25T13:38:16.417101Z"}}}